Eau Claire, WI

9:30 PM CDT on June 28, 2017 (GMT -0500)
Chippewa Valley Regional

Weather History for KEAU - July, 2013

Change the Weather History Date:

Wednesday, July 10, 2013

  Actual Average Record
Temperature  
Mean Temperature 72 °F 72 °F  
Max Temperature 80 °F 83 °F 107 °F (1936)
Min Temperature 63 °F 60 °F 46 °F (1953)
Degree Days  
Heating Degree Days 0 0  
Month to date heating degree days 0 2  
Since 1 June heating degree days 63 64  
Since 1 July heating degree days 0 2  
Cooling Degree Days 7 7  
Month to date cooling degree days 89 69  
Year to date cooling degree days 211 221  
Since 1 June cooling degree days 179 189  
Growing Degree Days 22 (Base 50)    
Moisture  
Dew Point 57 °F    
Average Humidity 62    
Maximum Humidity 84    
Minimum Humidity 39    
Precipitation  
Precipitation 0.00 in 0.13 in 2.06 in (1984)
Month to date precipitation 0.08 1.27  
Year to date precipitation 25.99 15.04  
Snow  
Snow 0.00 in 0.00 in 0.00 in ()
Month to date snowfall 0.0 0.0  
Since 1 June snowfall 0.0 0.0  
Since 1 July snowfall 0.0 0.0  
Snow Depth 0.00 in    
Sea Level Pressure  
Sea Level Pressure 29.95 in    
Wind  
Wind Speed 8 mph (NW)    
Max Wind Speed 20 mph    
Max Gust Speed 28 mph    
Visibility 10 miles    
Events      
T = Trace of Precipitation, MM = Missing Value Source: NWS Daily Summary

Daily Weather History Graph

Daily Weather History Graph

Search for Another Location

Airport or City:

Trip Planner

Search our weather history database for the weather conditions in past years. The results will help you decide how hot, cold, wet, or windy it might be!

Date:

Astronomy

Jul. 10, 2013 Rise Set
Actual Time 5:29 AM CDT 8:52 PM CDT
Civil Twilight 4:53 AM CDT 9:28 PM CDT
Nautical Twilight 4:06 AM CDT 10:15 PM CDT
Astronomical Twilight 3:06 AM CDT 11:15 PM CDT
Moon 7:59 AM CDT (7/10) 9:52 PM CDT (7/10)
Length of Visible Light 16h 34m
Length of Day
15h 22m
Waxing Crescent, 5% of the Moon is Illuminated
Jul 10
Waxing Crescent
Jul 15
First Quarter
Jul 22
Full
Jul 29
Last Quarter
Aug 6
New

Hourly Weather History & Observations

Time (CDT) Temp. Dew Point Humidity Pressure Visibility Wind Dir Wind Speed Gust Speed Precip Events Conditions
12:56 AM 73.9 °F 66.0 °F 76% 29.84 in 10.0 mi NW 9.2 mph - N/A   Scattered Clouds
1:10 AM 73.4 °F 66.2 °F 78% 29.86 in 10.0 mi NW 12.7 mph 24.2 mph N/A   Mostly Cloudy
1:20 AM 73.4 °F 66.2 °F 78% 29.86 in 10.0 mi NNW 10.4 mph 21.9 mph N/A   Mostly Cloudy
1:56 AM 72.0 °F 64.9 °F 78% 29.86 in 10.0 mi NW 8.1 mph - N/A   Scattered Clouds
2:35 AM 71.6 °F 64.4 °F 78% 29.89 in 10.0 mi NW 5.8 mph - N/A   Mostly Cloudy
2:56 AM 70.0 °F 64.0 °F 81% 29.88 in 10.0 mi NW 9.2 mph - N/A   Mostly Cloudy
3:16 AM 69.8 °F 62.6 °F 78% 29.90 in 10.0 mi NW 9.2 mph - N/A   Scattered Clouds
3:56 AM 66.9 °F 61.0 °F 81% 29.90 in 10.0 mi NW 8.1 mph - N/A   Partly Cloudy
4:56 AM 64.9 °F 59.0 °F 81% 29.92 in 10.0 mi WNW 5.8 mph - N/A   Scattered Clouds
5:56 AM 64.0 °F 59.0 °F 84% 29.95 in 10.0 mi NW 9.2 mph - N/A   Scattered Clouds
6:56 AM 64.0 °F 57.0 °F 78% 29.97 in 10.0 mi NW 6.9 mph - N/A   Clear
7:56 AM 66.0 °F 55.9 °F 70% 29.98 in 9.0 mi NW 8.1 mph 17.3 mph N/A   Clear
8:56 AM 68.0 °F 57.0 °F 68% 29.98 in 8.0 mi NW 12.7 mph - N/A   Clear
9:56 AM 70.0 °F 54.0 °F 57% 29.99 in 8.0 mi NNW 15.0 mph 25.3 mph N/A   Clear
10:56 AM 72.0 °F 52.0 °F 49% 29.98 in 8.0 mi NNW 17.3 mph 27.6 mph N/A   Partly Cloudy
11:56 AM 73.9 °F 52.0 °F 46% 29.98 in 9.0 mi NW 16.1 mph 23.0 mph N/A   Clear
12:56 PM 75.9 °F 51.1 °F 42% 29.98 in 10.0 mi North 13.8 mph 23.0 mph N/A   Clear
1:56 PM 77.0 °F 52.0 °F 42% 29.98 in 10.0 mi NNW 13.8 mph 20.7 mph N/A   Clear
2:56 PM 78.1 °F 51.1 °F 39% 29.99 in 10.0 mi NW 10.4 mph - N/A   Scattered Clouds
3:56 PM 79.0 °F 51.1 °F 38% 29.99 in 10.0 mi NNW 10.4 mph - N/A   Partly Cloudy
4:56 PM 79.0 °F 52.0 °F 39% 29.98 in 10.0 mi North 6.9 mph - N/A   Clear
5:56 PM 78.1 °F 51.1 °F 39% 29.98 in 10.0 mi NW 10.4 mph - N/A   Partly Cloudy
6:56 PM 77.0 °F 53.1 °F 43% 29.98 in 10.0 mi Variable 5.8 mph - N/A   Partly Cloudy
7:56 PM 73.9 °F 54.0 °F 50% 29.98 in 10.0 mi NW 4.6 mph - N/A   Clear
8:56 PM 70.0 °F 55.9 °F 61% 29.99 in 10.0 mi Calm Calm - N/A   Clear
9:56 PM 66.0 °F 57.9 °F 75% 30.00 in 10.0 mi Calm Calm - N/A   Clear
10:56 PM 64.9 °F 57.9 °F 78% 30.01 in 10.0 mi Calm Calm - N/A   Scattered Clouds
11:56 PM 64.9 °F 57.9 °F 78% 30.02 in 10.0 mi Calm Calm - N/A   Scattered Clouds